CW2888 Weather Reports


time (UTC)temp
C
wind
direction
speed
KPH
gust
KPH
rain 1hr
cm
rain 24hr
cm
rain mn
cm
humidity
%
barometer
mb
20260505184807 13 8 3.2 14.5 0.00 0.00 0.00 61 1012.9
20260505184308 13 3 3.2 14.5 0.00 0.00 0.00 60 1012.9
20260505183808 13 60 4.8 12.9 0.00 0.00 0.00 61 1012.8
20260505183308 13 0 9.7 24.1 0.00 0.00 0.00 60 1012.7
20260505182808 13 13 4.8 12.9 0.00 0.00 0.00 59 1012.7
20260505182308 13 20 6.4 19.3 0.00 0.00 0.00 58 1012.7
20260505181808 13 16 4.8 14.5 0.00 0.00 0.00 58 1012.6
20260505181309 13 19 8.0 22.5 0.00 0.00 0.00 56 1012.6
20260505180308 14 8 4.8 12.9 0.00 0.00 0.00 55 1012.6
20260505175808 14 331 4.8 14.5 0.00 0.00 0.00 56 1012.6
20260505175308 14 17 8.0 19.3 0.00 0.00 0.00 55 1012.5
20260505174808 14 30 6.4 20.9 0.00 0.00 0.00 56 1012.6
20260505174308 14 26 8.0 19.3 0.00 0.00 0.00 56 1012.7
20260505173808 14 16 4.8 12.9 0.00 0.00 0.00 57 1012.7
20260505173308 14 336 4.8 12.9 0.00 0.00 0.00 58 1012.7
20260505172808 14 36 6.4 16.1 0.00 0.00 0.00 57 1012.8
20260505172308 15 10 4.8 12.9 0.00 0.00 0.00 57 1012.7
20260505171808 15 2 6.4 14.5 0.00 0.00 0.00 56 1012.7
20260505171307 15 285 4.8 16.1 0.00 0.00 0.00 57 1012.7
20260505170808 15 351 8.0 19.3 0.00 0.00 0.00 57 1012.8
20260505165808 15 357 3.2 11.3 0.00 0.00 0.00 58 1012.8
20260505165308 15 329 6.4 19.3 0.00 0.00 0.00 56 1012.8
20260505164807 15 9 8.0 14.5 0.00 0.00 0.00 56 1012.9
20260505163307 15 342 8.0 20.9 0.00 0.00 0.00 56 1012.9
20260505162308 16 12 8.0 20.9 0.00 0.00 0.00 54 1012.9
20260505161808 16 354 9.7 19.3 0.00 0.00 0.00 54 1012.8
20260505161308 16 9 8.0 19.3 0.00 0.00 0.00 55 1012.8
20260505160308 15 10 6.4 22.5 0.00 0.00 0.00 57 1012.8
20260505153308 15 8 4.8 19.3 0.00 0.00 0.00 53 1013.0
20260505152808 15 38 3.2 12.9 0.00 0.00 0.00 55 1013.0
20260505152307 15 354 4.8 16.1 0.00 0.00 0.00 55 1013.0
20260505151808 15 321 6.4 16.1 0.00 0.00 0.00 54 1013.0
20260505150808 15 20 6.4 19.3 0.00 0.00 0.00 53 1013.1
20260505150308 15 356 4.8 16.1 0.00 0.00 0.00 52 1013.2
20260505140308 15 2 8.0 19.3 0.00 0.00 0.00 51 1013.3
20260505124308 16 346 8.0 20.9 0.00 0.00 0.00 50 1013.4
20260505123808 16 33 8.0 16.1 0.00 0.00 0.00 51 1013.4
20260505123308 16 304 6.4 14.5 0.00 0.00 0.00 52 1013.3
20260505122808 15 8 4.8 19.3 0.00 0.00 0.00 54 1013.3
20260505121808 15 14 4.8 14.5 0.00 0.00 0.00 54 1013.4
20260505120808 14 352 8.0 19.3 0.00 0.00 0.00 54 1013.4
20260505120308 15 299 6.4 12.9 0.00 0.00 0.00 55 1013.4
20260505115808 15 41 6.4 19.3 0.00 0.00 0.00 54 1013.4
20260505114808 15 26 6.4 19.3 0.00 0.00 0.00 55 1013.3
20260505114308 15 7 8.0 19.3 0.00 0.00 0.00 54 1013.4
20260505113808 14 314 3.2 14.5 0.00 0.00 0.00 57 1013.4
20260505113308 15 28 4.8 16.1 0.00 0.00 0.00 57 1013.4
20260505112807 16 25 4.8 16.1 0.00 0.00 0.00 58 1013.5
20260505112308 15 354 3.2 14.5 0.00 0.00 0.00 58 1013.5
20260505111807 14 50 1.6 4.8 0.00 0.00 0.00 60 1013.7
20260505110308 14 62 4.8 16.1 0.00 0.00 0.00 62 1013.6
20260505101808 13 43 4.8 19.3 0.00 0.00 0.00 63 1014.0
20260505101308 14 327 3.2 9.7 0.00 0.00 0.00 63 1014.0
20260505100307 13 344 6.4 14.5 0.00 0.00 0.00 62 1014.0
20260505095308 15 1 4.8 12.9 0.00 0.00 0.00 63 1014.1
20260505094808 14 330 3.2 16.1 0.00 0.00 0.00 63 1014.2
20260505094307 14 19 6.4 20.9 0.00 0.00 0.00 63 1014.1
20260505092307 13 31 4.8 11.3 0.00 0.00 0.00 65 1014.0
20260505091308 12 63 4.8 16.1 0.00 0.00 0.00 65 1014.1
20260505090308 12 350 6.4 16.1 0.00 0.00 0.00 66 1014.1
20260505085308 12 47 8.0 16.1 0.00 0.00 0.00 68 1014.3
20260505084308 11 12 4.8 16.1 0.00 0.00 0.00 69 1014.3
20260505083808 11 68 8.0 14.5 0.00 0.00 0.00 70 1014.4
20260505083310 11 53 4.8 14.5 0.00 0.00 0.00 72 1014.4
20260505082859 11 58 4.8 12.9 0.00 0.00 0.00 72 1014.4
20260505082308 11 47 3.2 8.0 0.00 0.00 0.00 73 1014.5
20260505081309 11 30 4.8 12.9 0.00 0.00 0.00 75 1014.5
20260505080808 10 21 3.2 9.7 0.00 0.00 0.00 76 1014.5
20260505080308 10 54 3.2 9.7 0.00 0.00 0.00 78 1014.6
20260505075808 10 46 3.2 9.7 0.00 0.00 0.00 79 1014.6
20260505074808 10 35 3.2 8.0 0.00 0.00 0.00 80 1014.6
20260505074308 10 17 1.6 4.8 0.00 0.00 0.00 81 1014.6
20260505073307 10 343 1.6 9.7 0.00 0.00 0.00 81 1014.5
20260505072808 10 45 3.2 8.0 0.00 0.00 0.00 81 1014.5
20260505072307 10 25 3.2 4.8 0.00 0.00 0.00 81 1014.5
20260505071808 10 28 1.6 8.0 0.00 0.00 0.00 81 1014.5
20260505070808 10 15 1.6 8.0 0.00 0.00 0.00 81 1014.5
20260505065808 10 12 4.8 12.9 0.00 0.00 0.00 81 1014.6
20260505064808 10 5 4.8 12.9 0.00 0.00 0.00 81 1014.4
20260505064308 10 29 3.2 8.0 0.00 0.00 0.00 81 1014.4
20260505063808 10 358 4.8 11.3 0.00 0.00 0.00 80 1014.5
20260505062307 9 34 4.8 11.3 0.00 0.00 0.00 82 1014.3
20260505061807 9 59 3.2 8.0 0.00 0.00 0.00 83 1014.4
20260505060807 9 5 4.8 12.9 0.00 0.00 0.00 84 1014.3
20260505060307 9 48 4.8 9.7 0.00 0.00 0.00 84 1014.3
20260505055807 9 9 4.8 12.9 0.00 0.00 0.00 85 1014.4
20260505055308 9 0 3.2 14.5 0.00 0.00 0.00 86 1014.4
20260505054808 8 2 6.4 14.5 0.00 0.00 0.00 86 1014.4
20260505054308 8 353 3.2 9.7 0.00 0.00 0.00 87 1014.4
20260505053807 8 331 3.2 9.7 0.00 0.00 0.00 87 1014.4
20260505053307 8 7 4.8 9.7 0.00 0.00 0.00 87 1014.4
20260505052808 8 344 3.2 11.3 0.00 0.00 0.00 87 1014.4
20260505052308 8 2 3.2 14.5 0.00 0.00 0.00 87 1014.4
20260505051308 8 1 4.8 11.3 0.00 0.00 0.00 87 1014.4
20260505050808 8 6 3.2 8.0 0.00 0.00 0.00 88 1014.5
20260505050308 8 2 3.2 8.0 0.00 0.00 0.00 88 1014.5
20260505041308 9 19 3.2 8.0 0.00 0.00 0.00 89 1014.2
20260505040307 8 24 3.2 9.7 0.00 0.00 0.00 89 1014.2
20260505035807 8 31 3.2 8.0 0.00 0.00 0.00 89 1014.2
20260505034807 8 14 3.2 8.0 0.00 0.00 0.00 89 1014.2
20260505034308 8 12 3.2 9.7 0.00 0.00 0.00 89 1014.1
20260505033807 8 9 3.2 8.0 0.00 0.00 0.00 89 1013.9
20260505033307 8 331 3.2 12.9 0.00 0.00 0.00 89 1014.0
20260505032807 8 16 1.6 9.7 0.00 0.00 0.00 89 1014.1
20260505032307 8 346 3.2 8.0 0.00 0.00 0.00 88 1014.1
20260505031808 8 343 3.2 9.7 0.00 0.00 0.00 88 1014.2
20260505030307 8 23 4.8 9.7 0.00 0.00 0.00 88 1014.3
20260505025807 8 354 3.2 4.8 0.00 0.00 0.00 88 1014.3
20260505025307 8 43 3.2 8.0 0.00 0.00 0.00 88 1014.4
20260505024808 8 335 1.6 3.2 0.00 0.00 0.00 88 1014.4
20260505023307 8 21 3.2 8.0 0.00 0.00 0.00 87 1014.4
20260505022807 9 2 1.6 4.8 0.00 0.00 0.00 87 1014.5
20260505022308 9 10 1.6 4.8 0.00 0.00 0.00 86 1014.5
20260505021808 9 7 0.0 3.2 0.00 0.00 0.00 86 1014.5
20260505020807 9 15 1.6 3.2 0.00 0.00 0.00 86 1014.6
20260505020308 9 42 0.0 1.6 0.00 0.00 0.00 86 1014.6
20260505015808 9 35 1.6 3.2 0.00 0.00 0.00 86 1014.6
20260505015307 9 66 1.6 4.8 0.00 0.00 0.00 86 1014.5
20260505014808 9 80 3.2 3.2 0.00 0.00 0.00 86 1014.6
20260505013808 10 42 1.6 3.2 0.00 0.00 0.00 85 1014.7
20260505012808 10 58 1.6 3.2 0.00 0.00 0.00 85 1014.7
20260505012307 10 69 1.6 3.2 0.00 0.00 0.00 85 1014.6
20260505011807 10 45 3.2 4.8 0.00 0.00 0.00 85 1014.8
20260505011308 10 31 1.6 4.8 0.00 0.00 0.00 84 1014.8
20260505010808 10 11 1.6 3.2 0.00 0.03 0.00 84 1014.8
20260505010307 10 12 1.6 4.8 0.00 0.03 0.00 84 1014.8
20260505005808 10 19 1.6 4.8 0.00 0.03 0.00 84 1014.8
20260505005307 10 14 0.0 0.0 0.00 0.03 0.00 84 1014.8
20260505004807 10 14 0.0 3.2 0.00 0.03 0.00 84 1014.8
20260505004307 10 17 1.6 4.8 0.00 0.03 0.00 84 1014.7
20260505003307 11 7 1.6 4.8 0.00 0.03 0.00 84 1014.7
20260505002808 11 12 1.6 4.8 0.00 0.03 0.00 84 1014.7
20260505001808 11 10 1.6 4.8 0.00 0.03 0.00 83 1014.8
20260505001307 11 340 0.0 0.0 0.00 0.03 0.00 83 1014.9
20260505000807 11 340 0.0 0.0 0.00 0.03 0.00 83 1014.8
20260505000307 11 340 1.6 3.2 0.00 0.03 0.00 83 1014.9
20260504235807 11 349 1.6 3.2 0.00 0.03 0.00 83 1014.8
20260504235307 11 19 0.0 3.2 0.00 0.03 0.00 83 1014.9
20260504234308 11 17 1.6 4.8 0.00 0.03 0.00 84 1015.0
20260504233308 11 11 1.6 4.8 0.00 0.03 0.00 83 1015.1
20260504232807 12 49 1.6 3.2 0.00 0.03 0.00 83 1015.1
20260504232308 12 39 1.6 3.2 0.00 0.03 0.00 83 1015.1
20260504231807 12 65 1.6 4.8 0.00 0.03 0.00 83 1015.1
20260504231307 12 76 1.6 4.8 0.00 0.03 0.00 83 1015.0
20260504230817 12 74 3.2 4.8 0.00 0.03 0.00 83 1014.9
20260504225808 12 55 1.6 3.2 0.00 0.03 0.03 83 1014.9
20260504225308 12 57 1.6 4.8 0.00 0.03 0.03 83 1015.0
20260504224808 12 74 0.0 4.8 0.00 0.03 0.03 83 1015.0
20260504224307 12 63 0.0 3.2 0.00 0.03 0.03 83 1015.0
20260504223808 12 70 3.2 4.8 0.00 0.03 0.03 83 1015.0
20260504223308 12 32 0.0 3.2 0.00 0.03 0.03 82 1015.1
20260504222807 12 55 0.0 3.2 0.00 0.03 0.03 82 1015.0
20260504222307 12 64 1.6 3.2 0.00 0.03 0.03 82 1015.0
20260504221308 12 27 0.0 4.8 0.00 0.03 0.03 82 1015.0
20260504220808 12 19 1.6 4.8 0.00 0.03 0.03 82 1015.1
20260504220307 12 24 3.2 4.8 0.00 0.03 0.03 82 1015.1
20260504215808 13 21 1.6 3.2 0.00 0.03 0.03 81 1015.0
20260504215308 13 72 3.2 4.8 0.00 0.03 0.03 81 1015.1
20260504214808 13 74 1.6 3.2 0.00 0.03 0.03 81 1015.1
20260504214307 13 88 1.6 3.2 0.00 0.03 0.03 81 1015.2
20260504213808 13 61 0.0 0.0 0.00 0.03 0.03 81 1015.1
20260504213308 13 69 0.0 3.2 0.00 0.03 0.03 81 1015.1
20260504212808 13 80 3.2 8.0 0.00 0.03 0.03 81 1015.1
20260504212308 13 81 3.2 9.7 0.00 0.03 0.03 81 1015.2
20260504211807 13 90 3.2 4.8 0.00 0.03 0.03 81 1015.2
20260504211307 13 78 3.2 8.0 0.00 0.03 0.03 81 1015.2
20260504210808 13 72 4.8 8.0 0.00 0.03 0.03 80 1015.2
20260504210308 13 67 3.2 9.7 0.00 0.03 0.03 80 1015.2
20260504205308 13 71 3.2 4.8 0.00 0.05 0.03 80 1015.2
20260504204808 13 52 3.2 8.0 0.00 0.05 0.03 80 1015.2
20260504204307 13 79 4.8 8.0 0.00 0.05 0.03 79 1015.2
20260504203807 13 63 1.6 8.0 0.00 0.05 0.03 79 1015.2
20260504203307 13 83 4.8 11.3 0.00 0.08 0.03 79 1015.2
20260504202807 13 86 3.2 4.8 0.00 0.13 0.03 79 1015.2
20260504202307 13 85 3.2 9.7 0.00 0.13 0.03 79 1015.2
20260504201807 14 83 4.8 9.7 0.00 0.15 0.03 78 1015.1
20260504201308 14 83 3.2 8.0 0.00 0.15 0.03 78 1015.0
20260504200807 14 83 4.8 8.0 0.00 0.15 0.03 78 1014.9
20260504194807 15 101 3.2 9.7 0.00 0.15 0.03 76 1014.7
20260504194308 15 111 4.8 8.0 0.00 0.15 0.03 75 1014.7
20260504193808 15 108 3.2 4.8 0.00 0.15 0.03 74 1014.6
20260504192807 15 55 1.6 11.3 0.00 0.15 0.03 73 1014.5
20260504192308 15 35 3.2 9.7 0.00 0.15 0.03 73 1014.4
20260504191808 15 19 3.2 4.8 0.00 0.15 0.03 73 1014.4
20260504191307 15 55 3.2 8.0 0.00 0.15 0.03 73 1014.4
20260504190808 15 63 3.2 8.0 0.00 0.15 0.03 73 1014.3
20260504190308 15 44 3.2 8.0 0.00 0.15 0.03 73 1014.3
20260504185808 15 67 3.2 8.0 0.00 0.15 0.03 72 1014.3
20260504185307 15 90 4.8 9.7 0.00 0.15 0.03 73 1014.3